STARLINK-32699, 62482

Orbit data source: Space-Track

STARLINK-32699, 62482 is a payload satellite owned by SpaceX/Seattle (US) in LEO that was launched on Tue, 31 Dec 2024 UTC via an FALCON 9 launch vehicle from the Air Force Eastern Test Range (AFETR). Payload-class satellites include a variety of spacecraft equipped with specific instruments for various scientific and technological missions. These include communications satellites like Starlink; space stations such as the ISS; scientific satellites like the Hubble; Earth observation satellites from companies like Planet Labs, Umbra, and HawkEye 360; GPS; miniature CubeSats for education and research; and military/defense satellites.

Loading next visibility...
Identifier
62482, 2024-254W
Orbit
LEO
Country
Flag of USUS
Related business
Manufacturer
SpaceX/Seattle
Mission
Operational Commercial Communications
Bus & Motor
STARLINK V2M, Unknown motor
Mass
730 kg wet, ~700 kg dry
Launch date (UTC)
2024-12-31 (10 months ago)
Launch vehicle
FALCON 9
Launch site
Air Force Eastern Test Range (AFETR)
Object type
Payload
Rocket body
Debris
Shape & HBR
Box + 2 Pan, 17.7 m
Radar Cross Section
33.884 m², Large (>1 m²)

Expand to show TLE details & history
Last TLE update: 18 hours ago

TLE from 18 hours ago
0 STARLINK-32699
1 62482U 24254W   25290.93643998  .00041243  00000-0  14993-2 0  9990
2 62482  43.0018 105.7789 0001584 275.3371  84.7299 15.27594181 45633
Epoch: 2025-10-17T22:28Z
TLE epoch observation values (Epoch: 2025-10-17T22:28:28.414Z)
Latitude
-0.00007°
Longitude
101.98577°
Altitude
482.683 km
Speed
7.626 km/s
True Right ascension
07h 03m 06s
True Declination
0° 00' 00"
Sunlit
Object was in daylight at epoch
Visualization orbit readout
Latitude
Unknown
Longitude
Unknown
Altitude
Unknown
Speed
Unknown
Apparent Right ascension
Unknown
Apparent Declination
Unknown
Sunlit
N/A
Visualization observer readout
Local Sidereal Time
11:00:13
Azimuth
Unknown
Elevation
Unknown
Doppler factor
Unknown
Orbital elements
Apogee altitude
486.039 km
Perigee altitude
483.864 km
Semi-major axis
6,863.089 km
Eccentricity
0.00016
Inclination
43.0018°
RAAN
105.7789°
Arg. of periapsis
275.3371°
True anomaly
84.74797°
Mean anomaly
84.7299°
Eccentric anomaly
84.73894°
Mean motion
3.81737 °/min
Orbital period
94.31 mins
BSTAR
0.0014993
Loading maneuver chart data...
Computing Atmospheric mass density...
Loading historical data...
Loading historical data...
Loading historical data...
Loading historical data...
Loading historical data...
Loading historical data...
Loading historical data...

Documentation

Showing up to 5 results
|